Volver al catálogo

APRIZESAT 9

ActivoComunicacionesSSO
NORAD 40018·PAYLOAD·🇺🇸 United States

Lanzado Jun 19, 2014 desde Dombarovsky

Loading…

Próximos Pases (próximas 24 horas)

TLE

ActualizadoSource: Space-Track

Época: Sep 14, 2026, 07:44 UTC

1 40018U 14033J   26257.32273912  .00000416  00000-0  68787-4 0  9996
2 40018  97.9187  28.4083 0064623 273.8477  85.5345 14.74304826656691

Sigue APRIZESAT 9 en tiempo real con AllMySat

Download on the App Store